GPS BIII-1 (PRN 04)

Last updated on Tue Jul 01 2025 00:03:13 GMT+0000 (Coordinated Universal Time)

1 43873U 18109A 25181.26599934 -.00000009 00000+0 00000+0 0 9996 2 43873 55.4726 106.0837 0033587 196.5882 344.7933 2.00571347 48011
UTC large
Height (km)
Speed (km/s)
/
Latitude / Longitude
Inclination (degrees)
Orbital Period (minutes)
Azimuth
Elevation
Range (km)
Doppler Factor

Next 0 passes for location: London (51.5072 / 0.1276)

Sorry there are no passes over London.